WJA1555 KSEA-CYYC

Flight info

Callsign WJA1555
Flight time 1h 12m
Altitude 37000
Route MONTN2 SEA DCT ALPSE DCT YDC DCT MENBO DCT NORET IGVEP7
Aircraft B737/M-SDE2E3FGHIRWXY/LB1

Departure

Time 2026-05-05 03:27
Airport Seattle–Tacoma International Airport (KSEA)

Arrival

Time 2026-05-05 04:40
Airport Calgary International Airport (CYYC)
Time Latitude Longitude Altitude Speed Heading
2026-05-05 03:02 47.43855 -122.30083 386 ft 0 kts 317°
2026-05-05 03:15 47.43846 -122.30071 386 ft 3 kts 317°
2026-05-05 03:15 47.43826 -122.30043 386 ft 3 kts 322°
2026-05-05 03:15 47.43815 -122.30032 385 ft 3 kts 331°
2026-05-05 03:15 47.43802 -122.30022 385 ft 2 kts 323°
2026-05-05 03:16 47.43795 -122.30009 385 ft 2 kts 277°
2026-05-05 03:16 47.43795 -122.29995 385 ft 0 kts 263°
2026-05-05 03:16 47.43795 -122.29991 385 ft 0 kts 238°
2026-05-05 03:16 47.43796 -122.29988 385 ft 0 kts 212°
2026-05-05 03:17 47.43800 -122.29985 385 ft 0 kts 201°
2026-05-05 03:19 47.43756 -122.30104 382 ft 12 kts 259°
2026-05-05 03:19 47.43740 -122.30219 381 ft 11 kts 258°
2026-05-05 03:19 47.43723 -122.30330 380 ft 11 kts 260°
2026-05-05 03:20 47.43721 -122.30439 379 ft 9 kts 272°
2026-05-05 03:20 47.43722 -122.30462 379 ft 0 kts 271°
2026-05-05 03:20 47.43722 -122.30465 379 ft 2 kts 271°
2026-05-05 03:21 47.43722 -122.30520 378 ft 9 kts 269°
2026-05-05 03:21 47.43748 -122.30636 375 ft 15 kts 333°
2026-05-05 03:21 47.43855 -122.30614 379 ft 16 kts
2026-05-05 03:21 47.43975 -122.30633 382 ft 18 kts 354°
2026-05-05 03:22 47.44110 -122.30638 385 ft 20 kts 360°
2026-05-05 03:22 47.44257 -122.30636 389 ft 22 kts
2026-05-05 03:22 47.44408 -122.30634 394 ft 22 kts
2026-05-05 03:22 47.44566 -122.30633 394 ft 23 kts
2026-05-05 03:23 47.44722 -122.30630 402 ft 22 kts
2026-05-05 03:23 47.44878 -122.30629 406 ft 22 kts
2026-05-05 03:23 47.45027 -122.30585 412 ft 22 kts 17°
2026-05-05 03:23 47.45170 -122.30520 409 ft 21 kts 13°
2026-05-05 03:24 47.45315 -122.30505 421 ft 20 kts
2026-05-05 03:24 47.45455 -122.30503 428 ft 20 kts 359°
2026-05-05 03:24 47.45592 -122.30503 425 ft 19 kts
2026-05-05 03:24 47.45722 -122.30501 440 ft 19 kts
2026-05-05 03:25 47.45850 -122.30499 436 ft 18 kts 359°
2026-05-05 03:25 47.45973 -122.30500 441 ft 18 kts
2026-05-05 03:25 47.46093 -122.30497 432 ft 17 kts
2026-05-05 03:25 47.46207 -122.30502 443 ft 16 kts 354°
2026-05-05 03:26 47.46312 -122.30550 442 ft 16 kts 323°
2026-05-05 03:26 47.46376 -122.30661 434 ft 12 kts 289°
2026-05-05 03:26 47.46344 -122.30759 435 ft 11 kts 210°
2026-05-05 03:26 47.46253 -122.30774 431 ft 24 kts 180°
2026-05-05 03:27 47.45702 -122.30780 430 ft 133 kts 180°
2026-05-05 03:27 47.44579 -122.30812 1106 ft 168 kts 183°
2026-05-05 03:27 47.43451 -122.30837 2727 ft 158 kts 182°
2026-05-05 03:27 47.42329 -122.30860 3950 ft 167 kts 182°
2026-05-05 03:28 47.41132 -122.30889 5093 ft 174 kts 182°
2026-05-05 03:28 47.39853 -122.30904 5985 ft 201 kts 181°
2026-05-05 03:28 47.38314 -122.30920 6418 ft 242 kts 181°
2026-05-05 03:28 47.36472 -122.30958 6879 ft 283 kts 181°
2026-05-05 03:29 47.34507 -122.30922 8120 ft 289 kts 171°
2026-05-05 03:29 47.32665 -122.29723 9326 ft 296 kts 139°
2026-05-05 03:29 47.31446 -122.27301 10364 ft 298 kts 111°
2026-05-05 03:29 47.31077 -122.24233 10869 ft 317 kts 88°
2026-05-05 03:30 47.31186 -122.20847 11098 ft 345 kts 85°
2026-05-05 03:30 47.31377 -122.17227 11584 ft 361 kts 84°
2026-05-05 03:30 47.31617 -122.13512 12409 ft 365 kts 83°
2026-05-05 03:30 47.31879 -122.09787 13333 ft 367 kts 83°
2026-05-05 03:31 47.32157 -122.06023 14156 ft 372 kts 81°
2026-05-05 03:31 47.32471 -122.02206 14968 ft 377 kts 80°
2026-05-05 03:31 47.32809 -121.98352 15797 ft 382 kts 79°
2026-05-05 03:31 47.33184 -121.94456 16601 ft 386 kts 79°
2026-05-05 03:32 47.33579 -121.90515 17383 ft 390 kts 78°
2026-05-05 03:32 47.34237 -121.86648 18115 ft 389 kts 61°
2026-05-05 03:32 47.35818 -121.83473 18903 ft 383 kts 39°
2026-05-05 03:32 47.38011 -121.81275 19711 ft 381 kts 26°
2026-05-05 03:33 47.40337 -121.79477 20367 ft 385 kts 24°
2026-05-05 03:33 47.42769 -121.77766 21028 ft 389 kts 23°
2026-05-05 03:33 47.45238 -121.76097 21718 ft 390 kts 22°
2026-05-05 03:33 47.47722 -121.74429 22364 ft 392 kts 22°
2026-05-05 03:34 47.50205 -121.72754 23051 ft 392 kts 22°
2026-05-05 03:34 47.52696 -121.71061 23676 ft 393 kts 22°
2026-05-05 03:34 47.55189 -121.69354 24261 ft 396 kts 22°
2026-05-05 03:34 47.57703 -121.67625 24722 ft 401 kts 22°
2026-05-05 03:35 47.60250 -121.65865 25202 ft 404 kts 22°
2026-05-05 03:35 47.62806 -121.64093 25708 ft 407 kts 22°
2026-05-05 03:35 47.65380 -121.62303 26219 ft 409 kts 22°
2026-05-05 03:35 47.67927 -121.60530 26661 ft 411 kts 23°
2026-05-05 03:36 47.70555 -121.58694 27091 ft 414 kts 22°
2026-05-05 03:36 47.73134 -121.56893 27543 ft 416 kts 22°
2026-05-05 03:36 47.75763 -121.55056 27915 ft 418 kts 22°
2026-05-05 03:36 47.78411 -121.53207 28271 ft 421 kts 22°
2026-05-05 03:37 47.81073 -121.51342 28715 ft 423 kts 22°
2026-05-05 03:37 47.83738 -121.49474 29112 ft 424 kts 23°
2026-05-05 03:37 47.86410 -121.47599 29560 ft 424 kts 22°
2026-05-05 03:37 47.89076 -121.45725 30123 ft 421 kts 23°
2026-05-05 03:38 47.91715 -121.43867 30591 ft 420 kts 22°
2026-05-05 03:38 47.94352 -121.42010 31146 ft 417 kts 22°
2026-05-05 03:38 47.96964 -121.40167 31724 ft 413 kts 22°
2026-05-05 03:38 47.99556 -121.38339 32211 ft 411 kts 22°
2026-05-05 03:39 48.02137 -121.36518 32643 ft 410 kts 22°
2026-05-05 03:39 48.04712 -121.34696 33145 ft 407 kts 22°
2026-05-05 03:39 48.07260 -121.32887 33689 ft 404 kts 22°
2026-05-05 03:39 48.09764 -121.31108 34123 ft 402 kts 22°
2026-05-05 03:40 48.12290 -121.29315 34471 ft 401 kts 22°
2026-05-05 03:40 48.14810 -121.27526 34869 ft 400 kts 22°
2026-05-05 03:40 48.17317 -121.25749 35284 ft 397 kts 22°
2026-05-05 03:40 48.19803 -121.23979 35744 ft 393 kts 22°
2026-05-05 03:41 48.22266 -121.22226 36087 ft 392 kts 22°
2026-05-05 03:41 48.24728 -121.20470 36389 ft 392 kts 22°
2026-05-05 03:41 48.27185 -121.18715 36711 ft 391 kts 21°
2026-05-05 03:41 48.29626 -121.16968 36836 ft 385 kts 21°
2026-05-05 03:42 48.34412 -121.13540 36845 ft 379 kts 21°
2026-05-05 03:42 48.39149 -121.10138 36863 ft 381 kts 21°
2026-05-05 03:43 48.43957 -121.06682 36851 ft 384 kts 21°
2026-05-05 03:43 48.48780 -121.03202 36851 ft 384 kts 21°
2026-05-05 03:44 48.53596 -120.99730 36862 ft 384 kts 21°
2026-05-05 03:44 48.58403 -120.96254 36844 ft 383 kts 21°
2026-05-05 03:45 48.63200 -120.92772 36856 ft 381 kts 21°
2026-05-05 03:45 48.67963 -120.89310 36863 ft 379 kts 21°
2026-05-05 03:46 48.72717 -120.85846 36851 ft 379 kts 21°
2026-05-05 03:46 48.77444 -120.82397 36871 ft 376 kts 21°
2026-05-05 03:47 48.82116 -120.78982 36860 ft 375 kts 21°
2026-05-05 03:47 48.86817 -120.75539 36855 ft 375 kts 21°
2026-05-05 03:48 48.91527 -120.72082 36867 ft 375 kts 21°
2026-05-05 03:48 48.96239 -120.68611 36858 ft 376 kts 21°
2026-05-05 03:49 49.00953 -120.65135 36860 ft 376 kts 21°
2026-05-05 03:49 49.05635 -120.61673 36873 ft 377 kts 21°
2026-05-05 03:50 49.10354 -120.58180 36867 ft 377 kts 21°
2026-05-05 03:50 49.15092 -120.54664 36866 ft 378 kts 21°
2026-05-05 03:51 49.19830 -120.51138 36873 ft 378 kts 21°
2026-05-05 03:51 49.24558 -120.47612 36873 ft 378 kts 21°
2026-05-05 03:52 49.29269 -120.44093 36871 ft 376 kts 21°
2026-05-05 03:52 49.33963 -120.40572 36876 ft 375 kts 22°
2026-05-05 03:53 49.36123 -120.38261 36886 ft 385 kts 34°
2026-05-05 03:53 49.38013 -120.35287 36889 ft 392 kts 41°
2026-05-05 03:53 49.40789 -120.27984 36894 ft 407 kts 57°
2026-05-05 03:54 49.42864 -120.19876 36884 ft 407 kts 58°
2026-05-05 03:54 49.44903 -120.11746 36879 ft 406 kts 58°
2026-05-05 03:55 49.46956 -120.03669 36875 ft 405 kts 58°
2026-05-05 03:55 49.49021 -119.95600 36862 ft 405 kts 57°
2026-05-05 03:56 49.51075 -119.87578 36854 ft 405 kts 57°
2026-05-05 03:56 49.53136 -119.79501 36845 ft 405 kts 57°
2026-05-05 03:57 49.55193 -119.71418 36844 ft 405 kts 57°
2026-05-05 03:57 49.57248 -119.63319 36854 ft 405 kts 57°
2026-05-05 03:58 49.59285 -119.55258 36846 ft 406 kts 57°
2026-05-05 03:58 49.61331 -119.47110 36845 ft 408 kts 58°
2026-05-05 03:59 49.63385 -119.38926 36840 ft 408 kts 58°
2026-05-05 03:59 49.65430 -119.30735 36845 ft 409 kts 58°
2026-05-05 04:00 49.67462 -119.22574 36851 ft 409 kts 58°
2026-05-05 04:00 49.69493 -119.14369 36847 ft 409 kts 58°
2026-05-05 04:01 49.71181 -119.07557 36849 ft 408 kts 58°
2026-05-05 04:01 49.73194 -118.99363 36845 ft 407 kts 57°
2026-05-05 04:02 49.75201 -118.91177 36859 ft 407 kts 57°
2026-05-05 04:02 49.77200 -118.82999 36856 ft 405 kts 57°
2026-05-05 04:03 49.79183 -118.74854 36858 ft 404 kts 57°
2026-05-05 04:03 49.81154 -118.66717 36868 ft 404 kts 57°
2026-05-05 04:04 49.83136 -118.58541 36870 ft 406 kts 57°
2026-05-05 04:04 49.85113 -118.50364 36860 ft 409 kts 57°
2026-05-05 04:05 49.87094 -118.42103 36858 ft 409 kts 57°
2026-05-05 04:05 49.89070 -118.33826 36851 ft 410 kts 57°
2026-05-05 04:06 49.91042 -118.25536 36849 ft 409 kts 57°
2026-05-05 04:06 49.93007 -118.17262 36855 ft 408 kts 57°
2026-05-05 04:07 49.94959 -118.08996 36875 ft 408 kts 57°
2026-05-05 04:07 49.96893 -118.00767 36849 ft 407 kts 57°
2026-05-05 04:08 49.98811 -117.92566 36863 ft 402 kts 57°
2026-05-05 04:08 50.00722 -117.84401 36881 ft 402 kts 57°
2026-05-05 04:09 50.02641 -117.76183 36865 ft 405 kts 57°
2026-05-05 04:09 50.04550 -117.67935 36891 ft 404 kts 57°
2026-05-05 04:10 50.06461 -117.59676 36887 ft 408 kts 57°
2026-05-05 04:10 50.08381 -117.51347 36880 ft 412 kts 57°
2026-05-05 04:11 50.10309 -117.42920 36906 ft 413 kts 57°
2026-05-05 04:11 50.12231 -117.34473 36920 ft 413 kts 57°
2026-05-05 04:12 50.14150 -117.26034 36919 ft 412 kts 57°
2026-05-05 04:12 50.16051 -117.17635 36908 ft 412 kts 57°
2026-05-05 04:13 50.17947 -117.09220 36903 ft 407 kts 57°
2026-05-05 04:13 50.19807 -117.00916 36968 ft 404 kts 57°
2026-05-05 04:14 50.21708 -116.92484 36944 ft 418 kts 58°
2026-05-05 04:14 50.23626 -116.83910 36959 ft 423 kts 58°
2026-05-05 04:15 50.25525 -116.75296 36966 ft 414 kts 58°
2026-05-05 04:15 50.27392 -116.66817 36963 ft 413 kts 58°
2026-05-05 04:16 50.29254 -116.58367 36978 ft 410 kts 58°
2026-05-05 04:16 50.31135 -116.49832 37026 ft 420 kts 58°
2026-05-05 04:17 50.33038 -116.41127 37003 ft 423 kts 58°
2026-05-05 04:17 50.34924 -116.32414 36988 ft 422 kts 58°
2026-05-05 04:18 50.36796 -116.23746 36997 ft 417 kts 58°
2026-05-05 04:18 50.37706 -116.19506 37026 ft 402 kts 58°
2026-05-05 04:18 50.38577 -116.15424 36997 ft 387 kts 58°
2026-05-05 04:19 50.39411 -116.11555 36989 ft 371 kts 57°
2026-05-05 04:19 50.40233 -116.07807 37014 ft 355 kts 56°
2026-05-05 04:19 50.41024 -116.04222 37009 ft 341 kts 55°
2026-05-05 04:19 50.41791 -116.00777 37015 ft 328 kts 54°
2026-05-05 04:20 50.42530 -115.97457 37003 ft 316 kts 54°
2026-05-05 04:20 50.43255 -115.94222 37020 ft 314 kts 54°
2026-05-05 04:20 50.44718 -115.87720 36802 ft 314 kts 54°
2026-05-05 04:21 50.45451 -115.84475 36043 ft 325 kts 54°
2026-05-05 04:21 50.46217 -115.81068 35041 ft 337 kts 55°
2026-05-05 04:21 50.47019 -115.77490 33650 ft 358 kts 56°
2026-05-05 04:21 50.47865 -115.73694 32293 ft 377 kts 57°
2026-05-05 04:22 50.48733 -115.69743 30930 ft 390 kts 57°
2026-05-05 04:22 50.49619 -115.65651 29560 ft 400 kts 58°
2026-05-05 04:22 50.50514 -115.61483 28246 ft 405 kts 59°
2026-05-05 04:22 50.51422 -115.57258 27101 ft 412 kts 60°
2026-05-05 04:23 50.52344 -115.52985 26353 ft 412 kts 60°
2026-05-05 04:23 50.53247 -115.48783 25793 ft 407 kts 60°
2026-05-05 04:23 50.54131 -115.44652 25098 ft 393 kts 60°
2026-05-05 04:23 50.55001 -115.40604 24091 ft 390 kts 60°
2026-05-05 04:24 50.55872 -115.36563 22966 ft 390 kts 60°
2026-05-05 04:24 50.56735 -115.32540 22001 ft 386 kts 61°
2026-05-05 04:24 50.57578 -115.28575 21237 ft 376 kts 61°
2026-05-05 04:25 50.59197 -115.20928 19986 ft 364 kts 61°
2026-05-05 04:25 50.60015 -115.17098 19420 ft 372 kts 62°
2026-05-05 04:25 50.60843 -115.13231 18744 ft 372 kts 62°
2026-05-05 04:25 50.61654 -115.09394 18138 ft 367 kts 62°
2026-05-05 04:26 50.62453 -115.05599 17560 ft 363 kts 62°
2026-05-05 04:26 50.63244 -115.01858 16969 ft 358 kts 62°
2026-05-05 04:26 50.64031 -114.98155 16379 ft 356 kts 63°
2026-05-05 04:26 50.64812 -114.94458 15735 ft 354 kts 64°
2026-05-05 04:27 50.65577 -114.90826 15094 ft 351 kts 64°
2026-05-05 04:27 50.66336 -114.87199 14500 ft 346 kts 64°
2026-05-05 04:27 50.67086 -114.83625 13983 ft 342 kts 65°
2026-05-05 04:27 50.67824 -114.80055 13585 ft 339 kts 65°
2026-05-05 04:28 50.68555 -114.76546 13435 ft 341 kts 65°
2026-05-05 04:28 50.69302 -114.72975 13281 ft 345 kts 66°
2026-05-05 04:28 50.70050 -114.69371 13144 ft 344 kts 66°
2026-05-05 04:28 50.70910 -114.65890 12963 ft 336 kts 54°
2026-05-05 04:29 50.72356 -114.63069 12685 ft 329 kts 39°
2026-05-05 04:29 50.73966 -114.60503 12392 ft 329 kts 39°
2026-05-05 04:29 50.75555 -114.57968 12088 ft 328 kts 40°
2026-05-05 04:29 50.77152 -114.55403 11786 ft 327 kts 40°
2026-05-05 04:30 50.78733 -114.52836 11472 ft 324 kts 41°
2026-05-05 04:30 50.80292 -114.50285 11165 ft 321 kts 41°
2026-05-05 04:30 50.81622 -114.48146 10905 ft 318 kts 40°
2026-05-05 04:30 50.83209 -114.45733 10601 ft 314 kts 39°
2026-05-05 04:31 50.84790 -114.43362 10299 ft 312 kts 39°
2026-05-05 04:31 50.86355 -114.41004 10008 ft 309 kts 40°
2026-05-05 04:31 50.87900 -114.38657 9715 ft 307 kts 40°
2026-05-05 04:31 50.89416 -114.36350 9408 ft 297 kts 41°
2026-05-05 04:32 50.90799 -114.33980 9099 ft 291 kts 55°
2026-05-05 04:32 50.91552 -114.31062 8908 ft 284 kts 75°
2026-05-05 04:32 50.91636 -114.27960 8662 ft 280 kts 89°
2026-05-05 04:32 50.91544 -114.24939 8395 ft 274 kts 90°
2026-05-05 04:33 50.91447 -114.21976 8191 ft 265 kts 89°
2026-05-05 04:33 50.91362 -114.19097 8006 ft 257 kts 89°
2026-05-05 04:33 50.91288 -114.16321 7834 ft 247 kts 86°
2026-05-05 04:33 50.91439 -114.13680 7696 ft 236 kts 78°
2026-05-05 04:34 50.91687 -114.11145 7519 ft 229 kts 77°
2026-05-05 04:34 50.91928 -114.08683 7378 ft 222 kts 77°
2026-05-05 04:34 50.92151 -114.06299 7262 ft 215 kts 78°
2026-05-05 04:34 50.92363 -114.03958 7150 ft 213 kts 78°
2026-05-05 04:35 50.92632 -114.01697 7063 ft 210 kts 64°
2026-05-05 04:35 50.93584 -114.00047 6964 ft 205 kts 23°
2026-05-05 04:35 50.94958 -113.99453 6719 ft 204 kts
2026-05-05 04:35 50.96335 -113.99169 6453 ft 196 kts
2026-05-05 04:36 50.97667 -113.99047 6211 ft 186 kts
2026-05-05 04:36 50.98928 -113.99048 5953 ft 176 kts
2026-05-05 04:36 51.00128 -113.99047 5721 ft 167 kts
2026-05-05 04:36 51.01263 -113.99051 5507 ft 159 kts
2026-05-05 04:37 51.02329 -113.99049 5304 ft 145 kts
2026-05-05 04:37 51.03295 -113.99075 5132 ft 138 kts
2026-05-05 04:37 51.04244 -113.99020 4965 ft 132 kts
2026-05-05 04:37 51.05149 -113.99038 4776 ft 131 kts
2026-05-05 04:38 51.06059 -113.99045 4612 ft 132 kts
2026-05-05 04:38 51.06978 -113.99044 4432 ft 132 kts
2026-05-05 04:38 51.07896 -113.99043 4258 ft 132 kts
2026-05-05 04:38 51.08815 -113.99043 4084 ft 132 kts
2026-05-05 04:39 51.09730 -113.99042 3913 ft 132 kts
2026-05-05 04:39 51.10651 -113.99042 3736 ft 131 kts
2026-05-05 04:39 51.11579 -113.99054 3566 ft 130 kts
2026-05-05 04:39 51.12393 -113.99040 3560 ft 101 kts
2026-05-05 04:40 51.12838 -113.99043 3564 ft 32 kts 353°
2026-05-05 04:40 51.13011 -113.99123 3560 ft 19 kts 338°
2026-05-05 04:40 51.13092 -113.99189 3561 ft 8 kts 322°
2026-05-05 04:40 51.13103 -113.99270 3559 ft 9 kts 249°
2026-05-05 04:41 51.13051 -113.99305 3559 ft 9 kts 180°
2026-05-05 04:41 51.12992 -113.99306 3557 ft 8 kts 180°
2026-05-05 04:41 51.12934 -113.99306 3560 ft 8 kts 180°
2026-05-05 04:41 51.12878 -113.99306 3558 ft 8 kts 180°
2026-05-05 04:42 51.12824 -113.99306 3560 ft 8 kts 180°
2026-05-05 04:42 51.12771 -113.99305 3557 ft 7 kts 179°
2026-05-05 04:42 51.12721 -113.99315 3560 ft 8 kts 204°
2026-05-05 04:42 51.12695 -113.99392 3559 ft 10 kts 273°
2026-05-05 04:43 51.12703 -113.99519 3559 ft 12 kts 276°
2026-05-05 04:43 51.12711 -113.99654 3556 ft 12 kts 276°
2026-05-05 04:43 51.12705 -113.99785 3559 ft 12 kts 267°
2026-05-05 04:43 51.12702 -113.99913 3558 ft 11 kts 268°
2026-05-05 04:44 51.12700 -114.00038 3558 ft 11 kts 269°
2026-05-05 04:44 51.12700 -114.00159 3558 ft 11 kts 271°
2026-05-05 04:44 51.12700 -114.00277 3558 ft 10 kts 270°
2026-05-05 04:44 51.12701 -114.00390 3558 ft 10 kts 270°
2026-05-05 04:45 51.12701 -114.00494 3558 ft 9 kts 270°
2026-05-05 04:45 51.12701 -114.00594 3558 ft 9 kts 270°
2026-05-05 04:45 51.12728 -114.00649 3558 ft 5 kts 355°
2026-05-05 04:45 51.12764 -114.00647 3558 ft 5 kts
2026-05-05 04:46 51.12800 -114.00645 3555 ft 5 kts
2026-05-05 04:46 51.12834 -114.00644 3556 ft 5 kts
2026-05-05 04:46 51.12868 -114.00643 3558 ft 5 kts
2026-05-05 04:46 51.12902 -114.00642 3556 ft 5 kts
2026-05-05 04:47 51.12934 -114.00642 3558 ft 5 kts
2026-05-05 04:47 51.12958 -114.00641 3558 ft 0 kts
2026-05-05 04:47 51.12963 -114.00655 3558 ft 2 kts 277°
2026-05-05 04:48 51.12952 -114.00669 3558 ft 2 kts 210°
2026-05-05 04:48 51.12940 -114.00668 3558 ft 1 kts 153°
2026-05-05 04:48 51.12938 -114.00661 3558 ft 1 kts 121°
2026-05-05 04:48 51.12939 -114.00655 3558 ft 1 kts 95°
2026-05-05 04:49 51.12948 -114.00608 3558 ft 3 kts 67°
2026-05-05 04:49 51.12953 -114.00587 3558 ft 3 kts 68°
2026-05-05 04:49 51.12957 -114.00571 3558 ft 0 kts 68°